Location: Corcelles
(46.1547°N, 4.7234°E)
Time: 08:42:53
(UTC+00:00)

Cosmos 1697 Rocket - Pass Details

Date: 14 July 2020
Orbit: 834 x 842 km, 71.0° (Epoch: 14 August)

Event Time Altitude Azimuth Distance (km) Brightness Sun altitude
Rises 02:08:35 0° 330° (NNW) 3,397 6.2 -15.0°
Reaches altitude 10° 02:11:04 10° 326° (NNW) 2,457 5.4 -14.8°
Maximum altitude 02:16:34 57° 249° (WSW) 979 2.8 -14.2°
Drops below altitude 10° 02:22:01 10° 172° (S) 2,437 4.7 -13.7°
Enters shadow 02:22:28 - 172° (S) 2,605 4.8 -13.6°
